Weather History for Fort Myers, FL

Change the Weather History Date:

Wednesday, July 17, 2013

  Actual Average Record
Temperature  
Mean Temperature 80 °F 83 °F  
Max Temperature 86 °F 92 °F 97 °F (1996)
Min Temperature 74 °F 75 °F 69 °F (1920)
Degree Days  
Heating Degree Days 0 0  
Month to date heating degree days 0 0  
Since 1 June heating degree days 0 0  
Since 1 July heating degree days 0 0  
Cooling Degree Days 15 18  
Month to date cooling degree days 275 306  
Year to date cooling degree days 1918 1897  
Since 1 June cooling degree days 780 831  
Growing Degree Days 28 (Base 50)    
Moisture  
Dew Point 72 °F    
Average Humidity 83    
Maximum Humidity 100    
Minimum Humidity 61    
Precipitation  
Precipitation 0.03 in 0.28 in 3.13 in (2011)
Month to date precipitation 7.69 5.00  
Year to date precipitation 28.18 26.89  
Sea Level Pressure  
Sea Level Pressure 30.10 in    
Wind  
Wind Speed 8 mph (East)    
Max Wind Speed 26 mph    
Max Gust Speed 36 mph    
Visibility 10 miles    
Events Rain    
T = Trace of Precipitation, MM = Missing Value Source: NWS Daily Summary

Daily Weather History Graph

Daily Weather History Graph

Search for Another Location

Airport:

Trip Planner

Search our weather history database for the weather conditions in past years. The results will help you decide how hot, cold, wet, or windy it might be!

Date:

Astronomy

Jul. 17, 2013 Rise Set
Actual Time 6:44 AM EDT 8:22 PM EDT
Civil Twilight 6:19 AM EDT 8:47 PM EDT
Nautical Twilight 5:48 AM EDT 9:18 PM EDT
Astronomical Twilight 5:16 AM EDT 9:50 PM EDT
Moon 3:16 PM EDT (7/17) 1:40 AM EDT (7/17)
Length of Visible Light 14h 28m
Length of Day
13h 37m
Waxing Gibbous, 67% of the Moon is Illuminated
Jul 17
Waxing Gibbous
Jul 22
Full
Jul 29
Last Quarter
Aug 6
New
Aug 14
First Quarter

Hourly Weather History & Observations

Time (EDT) Temp. Heat Index Dew Point Humidity Pressure Visibility Wind Dir Wind Speed Gust Speed Precip Events Conditions
12:20 AM 73.4 °F - 71.6 °F 94% 30.12 in 10.0 mi ENE 8.1 mph - N/A   Mostly Cloudy
12:27 AM 73.4 °F - 71.6 °F 94% 30.12 in 10.0 mi ENE 6.9 mph - N/A   Mostly Cloudy
12:53 AM 73.9 °F - 72.0 °F 93% 30.12 in 10.0 mi ENE 5.8 mph - N/A   Mostly Cloudy
1:03 AM 73.4 °F - 71.6 °F 94% 30.11 in 10.0 mi ENE 5.8 mph - N/A   Scattered Clouds
1:38 AM 73.4 °F - 71.6 °F 94% 30.10 in 10.0 mi ENE 8.1 mph - N/A   Mostly Cloudy
1:53 AM 73.9 °F - 73.0 °F 97% 30.11 in 10.0 mi ENE 8.1 mph - N/A   Overcast
2:53 AM 75.0 °F - 73.0 °F 94% 30.10 in 10.0 mi ENE 5.8 mph - N/A   Overcast
3:53 AM 75.0 °F - 73.0 °F 94% 30.08 in 10.0 mi ENE 6.9 mph - N/A   Overcast
4:53 AM 75.0 °F - 73.0 °F 94% 30.09 in 10.0 mi ENE 5.8 mph - N/A   Overcast
5:53 AM 75.0 °F - 73.0 °F 94% 30.09 in 10.0 mi ENE 6.9 mph - N/A   Overcast
6:53 AM 75.0 °F - 73.9 °F 96% 30.11 in 8.0 mi East 3.5 mph - N/A   Overcast
7:07 AM 75.2 °F - 73.4 °F 94% 30.11 in 8.0 mi East 4.6 mph - N/A   Overcast
7:53 AM 75.0 °F - 73.9 °F 96% 30.13 in 4.0 mi ENE 5.8 mph - N/A   Overcast
8:53 AM 75.9 °F - 73.9 °F 94% 30.13 in 10.0 mi ENE 5.8 mph - N/A   Scattered Clouds
9:53 AM 80.1 °F 84.2 °F 73.0 °F 79% 30.12 in 10.0 mi East 10.4 mph - N/A   Scattered Clouds
10:23 AM 78.8 °F - 73.4 °F 83% 30.12 in 10.0 mi SE 11.5 mph - N/A   Mostly Cloudy
10:40 AM 82.4 °F 87.2 °F 71.6 °F 70% 30.11 in 10.0 mi SE 8.1 mph - N/A   Scattered Clouds
10:53 AM 82.0 °F 86.7 °F 72.0 °F 71% 30.12 in 10.0 mi East 8.1 mph - N/A   Partly Cloudy
11:53 AM 84.0 °F 88.4 °F 70.0 °F 63% 30.13 in 10.0 mi SE 16.1 mph - N/A   Mostly Cloudy
12:53 PM 84.9 °F 90.7 °F 72.0 °F 65% 30.12 in 10.0 mi SE 13.8 mph 19.6 mph N/A   Scattered Clouds
1:53 PM 73.9 °F - 69.1 °F 85% 30.13 in 3.0 mi SE 11.5 mph 25.3 mph 0.01 in Rain Rain
2:53 PM 78.1 °F - 73.0 °F 84% 30.11 in 10.0 mi East 9.2 mph - 0.02 in   Partly Cloudy
3:53 PM 82.0 °F 86.3 °F 71.1 °F 69% 30.09 in 10.0 mi East 8.1 mph 17.3 mph N/A   Clear
4:53 PM 81.0 °F 85.2 °F 72.0 °F 74% 30.05 in 10.0 mi East 4.6 mph - N/A   Partly Cloudy
5:53 PM 82.0 °F 85.5 °F 69.1 °F 65% 30.04 in 10.0 mi East 9.2 mph - N/A   Clear
6:53 PM 82.0 °F 84.9 °F 68.0 °F 62% 30.06 in 10.0 mi East 10.4 mph - N/A   Clear
7:53 PM 81.0 °F 83.8 °F 68.0 °F 65% 30.07 in 10.0 mi East 9.2 mph - N/A   Clear
8:53 PM 79.0 °F - 70.0 °F 74% 30.09 in 10.0 mi East 6.9 mph - N/A   Clear
9:53 PM 78.1 °F - 70.0 °F 76% 30.09 in 10.0 mi East 9.2 mph - N/A   Clear
10:53 PM 77.0 °F - 70.0 °F 79% 30.10 in 10.0 mi East 4.6 mph - N/A   Clear
11:53 PM 75.0 °F - 71.1 °F 87% 30.10 in 10.0 mi East 3.5 mph - N/A   Clear